QPF
0.01 0.02 0.03 0.02 0.03 0.03 0.03 0.02 0.02 0.03 0.03 0.02 0.02 0.01 0.01 0.01 0.01 0.01 0.01 0.00 0.00 0.01 0.01 0.01 0.01 0.01 0.01 0.01 0.02 0.03 0.04 0.05 0.05 0.05 0.04 0.03 0.03 0.03
0.01 0.02 0.03 0.02 0.02 0.03 0.02 0.02 0.02 0.04 0.03 0.03 0.02 0.01 0.01 0.01 0.01 0.01 0.01 0.00 0.00 0.00 0.00 0.00 0.00 0.00 0.00 0.01 0.01 0.03 0.04 0.05 0.05 0.04 0.03 0.03 0.03 0.02
0.01 0.01 0.01 0.01 0.03 0.05 0.03 0.02 0.02 0.03 0.03 0.03 0.02 0.01 0.01 0.01 0.01 0.01 0.00 0.00 0.00 0.00 0.00 0.00 0.00 0.00 0.00 0.01 0.02 0.04 0.04 0.05 0.04 0.04 0.04 0.03 0.02 0.02
0.01 0.01 0.00 0.01 0.02 0.04 0.04 0.03 0.03 0.02 0.02 0.02 0.02 0.01 0.01 0.01 0.01 0.00 0.00 0.00 0.00 0.00 0.00 0.00 0.00 0.00 0.01 0.02 0.02 0.02 0.02 0.03 0.04 0.04 0.04 0.03 0.02 0.02
0.03 0.02 0.01 0.01 0.02 0.02 0.02 0.03 0.03 0.03 0.03 0.02 0.02 0.01 0.01 0.01 0.01 0.00 0.00 0.00 0.00 0.00 0.00 0.00 0.00 0.00 0.01 0.01 0.02 0.02 0.02 0.02 0.03 0.04 0.04 0.04 0.03 0.02
0.02 0.03 0.02 0.02 0.03 0.03 0.03 0.03 0.03 0.03 0.03 0.02 0.01 0.01 0.01 0.01 0.00 0.00 0.00 0.00 0.00 0.00 0.00 0.00 0.01 0.00 0.00 0.01 0.01 0.02 0.02 0.01 0.02 0.04 0.04 0.04 0.04 0.02
0.03 0.03 0.03 0.04 0.05 0.05 0.04 0.02 0.02 0.02 0.03 0.02 0.01 0.01 0.01 0.01 0.01 0.00 0.00 0.00 0.01 0.01 0.00 0.00 0.01 0.01 0.01 0.01 0.01 0.02 0.02 0.02 0.02 0.03 0.05 0.05 0.04 0.03
0.06 0.04 0.03 0.04 0.04 0.05 0.03 0.02 0.03 0.03 0.03 0.02 0.01 0.01 0.01 0.00 0.01 0.01 0.01 0.01 0.02 0.01 0.01 0.01 0.01 0.01 0.01 0.01 0.01 0.01 0.02 0.02 0.01 0.02 0.03 0.05 0.05 0.03
0.06 0.04 0.03 0.02 0.02 0.02 0.02 0.02 0.02 0.02 0.02 0.03 0.02 0.02 0.01 0.01 0.01 0.01 0.01 0.01 0.01 0.01 0.01 0.01 0.01 0.01 0.01 0.01 0.01 0.01 0.01 0.02 0.01 0.02 0.02 0.02 0.03 0.03
0.04 0.04 0.03 0.03 0.02 0.03 0.02 0.02 0.01 0.01 0.01 0.02 0.02 0.02 0.01 0.02 0.02 0.01 0.01 0.01 0.01 0.01 0.01 0.01 0.01 0.01 0.01 0.01 0.01 0.01 0.01 0.02 0.02 0.02 0.02 0.02 0.02 0.02
0.02 0.03 0.03 0.03 0.03 0.04 0.03 0.02 0.02 0.01 0.01 0.02 0.02 0.03 0.03 0.03 0.02 0.02 0.01 0.01 0.01 0.01 0.01 0.01 0.01 0.02 0.01 0.01 0.01 0.01 0.01 0.02 0.02 0.03 0.03 0.03 0.02 0.02
0.02 0.02 0.02 0.02 0.03 0.03 0.03 0.03 0.02 0.02 0.01 0.02 0.02 0.02 0.02 0.02 0.02 0.01 0.01 0.02 0.02 0.02 0.01 0.01 0.02 0.02 0.02 0.01 0.01 0.01 0.01 0.03 0.03 0.03 0.04 0.03 0.02 0.02
0.01 0.01 0.02 0.03 0.02 0.02 0.02 0.02 0.02 0.03 0.03 0.03 0.03 0.02 0.02 0.01 0.01 0.01 0.01 0.02 0.02 0.02 0.02 0.02 0.02 0.02 0.02 0.01 0.01 0.01 0.01 0.02 0.03 0.03 0.04 0.03 0.02 0.02
0.01 0.01 0.01 0.03 0.03 0.02 0.01 0.01 0.02 0.03 0.02 0.02 0.02 0.02 0.02 0.02 0.02 0.02 0.02 0.02 0.02 0.02 0.03 0.03 0.03 0.03 0.03 0.03 0.02 0.01 0.01 0.01 0.03 0.03 0.03 0.04 0.03 0.03
0.02 0.02 0.02 0.03 0.03 0.02 0.01 0.01 0.01 0.02 0.02 0.02 0.03 0.02 0.02 0.02 0.02 0.02 0.01 0.01 0.01 0.02 0.02 0.02 0.02 0.03 0.03 0.03 0.03 0.02 0.01 0.01 0.03 0.04 0.04 0.03 0.02 0.02
0.02 0.02 0.03 0.04 0.03 0.02 0.02 0.01 0.01 0.01 0.01 0.02 0.02 0.02 0.02 0.01 0.02 0.02 0.01 0.01 0.01 0.01 0.02 0.01 0.01 0.02 0.03 0.03 0.04 0.04 0.03 0.02 0.02 0.03 0.04 0.03 0.03 0.02
0.02 0.02 0.02 0.03 0.03 0.02 0.02 0.02 0.02 0.02 0.02 0.02 0.02 0.02 0.02 0.02 0.02 0.02 0.02 0.02 0.01 0.01 0.02 0.02 0.02 0.02 0.03 0.04 0.06 0.07 0.05 0.03 0.02 0.03 0.04 0.03 0.02 0.02
0.02 0.02 0.02 0.02 0.02 0.02 0.02 0.03 0.03 0.03 0.03 0.03 0.03 0.03 0.03 0.02 0.01 0.01 0.02 0.02 0.01 0.01 0.02 0.02 0.03 0.03 0.04 0.05 0.08 0.09 0.07 0.06 0.05 0.05 0.05 0.03 0.02 0.02
0.02 0.02 0.02 0.02 0.02 0.02 0.03 0.03 0.03 0.03 0.04 0.05 0.05 0.05 0.04 0.03 0.02 0.01 0.01 0.01 0.01 0.02 0.02 0.03 0.03 0.04 0.04 0.04 0.05 0.06 0.06 0.05 0.06 0.06 0.07 0.04 0.03 0.02
0.02 0.02 0.02 0.02 0.02 0.02 0.02 0.02 0.02 0.02 0.03 0.04 0.04 0.05 0.05 0.04 0.04 0.03 0.03 0.03 0.02 0.02 0.02 0.02 0.03 0.03 0.03 0.02 0.03 0.03 0.04 0.04 0.06 0.07 0.07 0.05 0.03 0.02
0.01 0.01 0.01 0.02 0.02 0.02 0.02 0.02 0.02 0.02 0.03 0.04 0.04 0.04 0.04 0.04 0.04 0.04 0.04 0.04 0.04 0.04 0.04 0.04 0.04 0.03 0.02 0.03 0.03 0.03 0.03 0.04 0.05 0.05 0.06 0.05 0.04 0.03
0.02 0.01 0.01 0.01 0.01 0.02 0.03 0.03 0.03 0.03 0.03 0.04 0.03 0.04 0.05 0.05 0.05 0.05 0.05 0.05 0.04 0.04 0.04 0.05 0.04 0.03 0.02 0.02 0.03 0.03 0.03 0.03 0.04 0.04 0.04 0.05 0.05 0.04
0.04 0.03 0.03 0.02 0.02 0.02 0.03 0.04 0.05 0.06 0.04 0.04 0.04 0.04 0.04 0.04 0.05 0.06 0.06 0.05 0.04 0.05 0.06 0.06 0.05 0.04 0.04 0.03 0.03 0.03 0.03 0.02 0.02 0.03 0.03 0.04 0.04 0.04
MSLP
1014.21 1014.21 1014.20 1014.15 1014.04 1013.85 1013.56 1013.18 1012.72 1012.19 1011.63 1011.04 1010.47 1009.91 1009.39 1008.91 1008.48 1008.09 1007.75 1007.45 1007.20 1006.97 1006.76 1006.56 1006.36 1006.15 1005.92 1005.67 1005.40 1005.12 1004.84 1004.58 1004.34 1004.13 1003.96 1003.84 1003.75 1003.69
1014.60 1014.60 1014.59 1014.57 1014.49 1014.32 1014.07 1013.73 1013.30 1012.80 1012.25 1011.68 1011.09 1010.52 1009.97 1009.45 1008.96 1008.50 1008.07 1007.67 1007.31 1006.97 1006.66 1006.36 1006.06 1005.76 1005.46 1005.16 1004.84 1004.53 1004.23 1003.94 1003.69 1003.48 1003.31 1003.19 1003.11 1003.07
1014.99 1014.96 1014.93 1014.89 1014.80 1014.63 1014.39 1014.06 1013.65 1013.17 1012.64 1012.08 1011.50 1010.92 1010.35 1009.79 1009.24 1008.72 1008.21 1007.73 1007.27 1006.83 1006.42 1006.02 1005.64 1005.27 1004.91 1004.56 1004.21 1003.87 1003.56 1003.26 1003.01 1002.80 1002.63 1002.52 1002.46 1002.45
1015.39 1015.30 1015.22 1015.13 1015.00 1014.81 1014.54 1014.20 1013.79 1013.32 1012.80 1012.25 1011.68 1011.09 1010.50 1009.91 1009.32 1008.73 1008.15 1007.59 1007.05 1006.53 1006.03 1005.56 1005.12 1004.70 1004.30 1003.91 1003.54 1003.19 1002.87 1002.57 1002.32 1002.12 1001.96 1001.86 1001.82 1001.83
1015.79 1015.63 1015.48 1015.31 1015.12 1014.87 1014.57 1014.20 1013.78 1013.30 1012.79 1012.23 1011.65 1011.06 1010.44 1009.82 1009.18 1008.54 1007.91 1007.28 1006.68 1006.09 1005.54 1005.03 1004.54 1004.08 1003.66 1003.26 1002.88 1002.53 1002.20 1001.91 1001.66 1001.46 1001.31 1001.23 1001.20 1001.24
1016.15 1015.92 1015.69 1015.45 1015.18 1014.87 1014.52 1014.12 1013.67 1013.18 1012.65 1012.09 1011.49 1010.88 1010.24 1009.58 1008.90 1008.21 1007.53 1006.85 1006.20 1005.58 1005.00 1004.45 1003.95 1003.48 1003.05 1002.65 1002.27 1001.92 1001.59 1001.30 1001.05 1000.85 1000.70 1000.63 1000.62 1000.67
1016.47 1016.17 1015.86 1015.54 1015.20 1014.84 1014.43 1014.00 1013.52 1013.01 1012.47 1011.89 1011.28 1010.63 1009.96 1009.26 1008.54 1007.81 1007.08 1006.37 1005.68 1005.04 1004.44 1003.90 1003.40 1002.94 1002.51 1002.11 1001.73 1001.38 1001.05 1000.75 1000.49 1000.28 1000.14 1000.07 1000.07 1000.14
1016.72 1016.36 1016.00 1015.61 1015.22 1014.80 1014.35 1013.88 1013.39 1012.86 1012.30 1011.70 1011.06 1010.39 1009.67 1008.93 1008.16 1007.39 1006.62 1005.88 1005.18 1004.53 1003.94 1003.40 1002.91 1002.46 1002.04 1001.65 1001.27 1000.91 1000.56 1000.25 999.98 999.76 999.62 999.55 999.56 999.65
1016.89 1016.50 1016.09 1015.67 1015.23 1014.77 1014.30 1013.81 1013.30 1012.76 1012.18 1011.56 1010.90 1010.18 1009.43 1008.64 1007.82 1007.01 1006.21 1005.44 1004.73 1004.08 1003.49 1002.97 1002.49 1002.05 1001.64 1001.24 1000.85 1000.48 1000.11 999.78 999.49 999.27 999.12 999.06 999.09 999.21
1017.02 1016.61 1016.17 1015.71 1015.25 1014.77 1014.29 1013.79 1013.27 1012.72 1012.13 1011.49 1010.80 1010.04 1009.24 1008.40 1007.54 1006.69 1005.85 1005.07 1004.34 1003.69 1003.11 1002.59 1002.12 1001.69 1001.27 1000.86 1000.45 1000.04 999.65 999.30 998.99 998.76 998.62 998.59 998.66 998.81
1017.14 1016.70 1016.24 1015.77 1015.29 1014.81 1014.32 1013.83 1013.31 1012.75 1012.15 1011.49 1010.76 1009.97 1009.13 1008.24 1007.34 1006.44 1005.57 1004.76 1004.03 1003.36 1002.78 1002.26 1001.78 1001.34 1000.90 1000.46 1000.02 999.58 999.16 998.78 998.47 998.24 998.13 998.13 998.24 998.46
1017.27 1016.82 1016.35 1015.87 1015.38 1014.90 1014.41 1013.92 1013.40 1012.84 1012.23 1011.55 1010.80 1009.97 1009.08 1008.16 1007.21 1006.27 1005.38 1004.54 1003.78 1003.11 1002.51 1001.97 1001.47 1001.00 1000.53 1000.05 999.57 999.09 998.64 998.24 997.93 997.72 997.64 997.70 997.88 998.17
1017.46 1016.99 1016.51 1016.02 1015.53 1015.05 1014.57 1014.07 1013.56 1013.00 1012.37 1011.68 1010.90 1010.05 1009.13 1008.16 1007.18 1006.22 1005.29 1004.43 1003.64 1002.94 1002.32 1001.75 1001.21 1000.70 1000.18 999.66 999.14 998.62 998.15 997.74 997.43 997.25 997.22 997.34 997.60 997.98
1017.71 1017.23 1016.74 1016.24 1015.76 1015.28 1014.80 1014.31 1013.80 1013.23 1012.60 1011.89 1011.10 1010.23 1009.28 1008.30 1007.29 1006.30 1005.35 1004.47 1003.66 1002.92 1002.26 1001.65 1001.08 1000.51 999.95 999.38 998.81 998.26 997.77 997.36 997.07 996.93 996.95 997.15 997.48 997.93
1018.04 1017.55 1017.06 1016.57 1016.08 1015.61 1015.14 1014.65 1014.14 1013.57 1012.94 1012.22 1011.42 1010.54 1009.59 1008.59 1007.58 1006.58 1005.62 1004.71 1003.88 1003.12 1002.42 1001.77 1001.15 1000.53 999.92 999.31 998.71 998.14 997.64 997.24 996.98 996.88 996.95 997.21 997.61 998.13
1018.43 1017.95 1017.47 1016.99 1016.52 1016.06 1015.59 1015.11 1014.60 1014.04 1013.40 1012.69 1011.89 1011.02 1010.07 1009.08 1008.08 1007.08 1006.12 1005.22 1004.38 1003.60 1002.87 1002.19 1001.52 1000.87 1000.22 999.58 998.96 998.38 997.89 997.51 997.28 997.22 997.33 997.63 998.08 998.63
1018.88 1018.43 1017.97 1017.52 1017.07 1016.63 1016.18 1015.71 1015.20 1014.64 1014.01 1013.31 1012.53 1011.67 1010.74 1009.78 1008.81 1007.84 1006.90 1006.01 1005.17 1004.39 1003.65 1002.95 1002.27 1001.60 1000.93 1000.28 999.66 999.10 998.62 998.27 998.07 998.04 998.19 998.51 998.97 999.52
1019.39 1018.98 1018.57 1018.15 1017.74 1017.31 1016.88 1016.42 1015.92 1015.37 1014.75 1014.06 1013.30 1012.47 1011.59 1010.67 1009.74 1008.81 1007.92 1007.06 1006.25 1005.49 1004.77 1004.08 1003.40 1002.74 1002.09 1001.46 1000.86 1000.33 999.89 999.58 999.41 999.41 999.57 999.88 1000.31 1000.81
1019.94 1019.59 1019.23 1018.86 1018.48 1018.08 1017.66 1017.21 1016.72 1016.18 1015.57 1014.90 1014.17 1013.37 1012.54 1011.68 1010.80 1009.94 1009.11 1008.31 1007.56 1006.85 1006.17 1005.51 1004.87 1004.25 1003.64 1003.05 1002.51 1002.03 1001.64 1001.37 1001.24 1001.25 1001.40 1001.68 1002.05 1002.48
1020.52 1020.24 1019.94 1019.62 1019.27 1018.89 1018.49 1018.04 1017.56 1017.02 1016.42 1015.76 1015.06 1014.31 1013.52 1012.73 1011.93 1011.15 1010.39 1009.67 1009.00 1008.35 1007.74 1007.15 1006.58 1006.02 1005.47 1004.96 1004.48 1004.07 1003.75 1003.53 1003.42 1003.44 1003.58 1003.81 1004.11 1004.44
1021.12 1020.90 1020.65 1020.37 1020.05 1019.69 1019.29 1018.85 1018.36 1017.81 1017.22 1016.59 1015.91 1015.20 1014.47 1013.74 1013.03 1012.33 1011.67 1011.04 1010.46 1009.90 1009.38 1008.87 1008.38 1007.91 1007.45 1007.02 1006.63 1006.30 1006.04 1005.87 1005.80 1005.82 1005.93 1006.11 1006.33 1006.55
1021.69 1021.53 1021.32 1021.07 1020.77 1020.42 1020.02 1019.57 1019.07 1018.52 1017.94 1017.32 1016.66 1016.00 1015.33 1014.67 1014.04 1013.44 1012.87 1012.35 1011.86 1011.41 1010.98 1010.57 1010.18 1009.80 1009.43 1009.09 1008.79 1008.53 1008.34 1008.22 1008.17 1008.19 1008.28 1008.41 1008.55 1008.68
1022.18 1022.06 1021.89 1021.65 1021.37 1021.02 1020.62 1020.16 1019.66 1019.12 1018.53 1017.93 1017.31 1016.69 1016.08 1015.50 1014.95 1014.43 1013.97 1013.54 1013.16 1012.80 1012.48 1012.16 1011.86 1011.57 1011.30 1011.04 1010.82 1010.63 1010.49 1010.41 1010.39 1010.41 1010.48 1010.56 1010.65 1010.71
Thickness
5668 5667 5667 5667 5668 5667 5666 5663 5655 5649 5650 5654 5655 5657 5656 5655 5654 5652 5651 5651 5650 5650 5649 5649 5649 5649 5649 5649 5650 5650 5650 5650 5649 5649 5649 5649 5649 5649
5664 5663 5662 5662 5662 5662 5662 5660 5658 5652 5647 5649 5651 5652 5652 5650 5649 5647 5646 5646 5645 5644 5644 5644 5644 5644 5644 5644 5644 5645 5644 5644 5643 5643 5643 5643 5642 5642
5659 5659 5658 5658 5657 5657 5656 5655 5653 5650 5644 5645 5647 5647 5646 5645 5643 5642 5642 5641 5640 5639 5639 5639 5638 5638 5638 5638 5638 5639 5639 5638 5638 5638 5637 5637 5637 5636
5655 5654 5654 5654 5652 5652 5651 5649 5648 5647 5643 5639 5640 5640 5640 5640 5639 5638 5637 5636 5636 5635 5635 5634 5634 5634 5633 5633 5633 5633 5633 5633 5632 5632 5632 5631 5631 5630
5652 5650 5650 5649 5647 5647 5646 5645 5644 5644 5641 5636 5634 5635 5635 5635 5633 5633 5633 5632 5632 5631 5630 5630 5629 5629 5629 5628 5628 5628 5628 5627 5627 5626 5626 5625 5625 5625
5649 5647 5646 5646 5644 5643 5642 5640 5639 5637 5635 5632 5630 5629 5628 5629 5627 5626 5625 5626 5626 5627 5625 5625 5624 5624 5624 5623 5623 5623 5622 5622 5621 5621 5620 5620 5619 5619
5644 5643 5643 5643 5642 5640 5639 5636 5634 5631 5629 5627 5624 5623 5622 5621 5619 5620 5619 5619 5620 5621 5620 5620 5619 5619 5619 5618 5618 5617 5617 5616 5616 5615 5615 5614 5614 5613
5638 5638 5639 5638 5637 5636 5634 5633 5631 5628 5625 5622 5620 5618 5617 5617 5616 5615 5613 5612 5611 5615 5614 5613 5614 5613 5613 5613 5613 5612 5612 5611 5610 5610 5610 5609 5608 5607
5633 5633 5634 5634 5632 5630 5629 5628 5626 5625 5624 5620 5617 5616 5614 5613 5611 5609 5608 5607 5607 5609 5608 5607 5608 5607 5609 5609 5608 5607 5606 5606 5605 5605 5604 5603 5602 5601
5628 5627 5627 5626 5627 5625 5623 5622 5620 5620 5619 5617 5616 5615 5613 5611 5609 5606 5604 5604 5604 5604 5603 5600 5601 5601 5603 5603 5603 5602 5602 5601 5600 5599 5598 5598 5597 5596
5621 5622 5622 5620 5621 5620 5617 5615 5614 5613 5614 5613 5612 5610 5608 5606 5604 5600 5598 5595 5594 5595 5596 5594 5594 5595 5596 5597 5597 5596 5596 5595 5594 5594 5593 5592 5591 5590
5613 5614 5615 5614 5614 5613 5611 5608 5606 5605 5605 5605 5604 5603 5601 5600 5598 5595 5593 5590 5588 5587 5589 5588 5587 5587 5587 5589 5590 5589 5589 5589 5588 5588 5587 5586 5585 5584
5605 5605 5606 5606 5605 5605 5604 5602 5600 5599 5598 5597 5596 5594 5593 5592 5591 5589 5588 5586 5583 5581 5583 5581 5580 5579 5578 5579 5581 5582 5581 5581 5581 5581 5580 5580 5579 5578
5596 5597 5597 5598 5597 5596 5595 5594 5594 5592 5590 5588 5587 5586 5584 5583 5583 5582 5581 5580 5579 5577 5577 5575 5573 5571 5570 5569 5570 5572 5573 5574 5574 5573 5573 5573 5572 5572
5587 5588 5588 5588 5587 5586 5586 5586 5585 5583 5581 5579 5578 5576 5576 5576 5575 5574 5573 5572 5571 5570 5568 5567 5566 5565 5563 5562 5562 5563 5564 5566 5566 5566 5566 5565 5565 5565
5577 5578 5579 5578 5578 5577 5577 5576 5576 5574 5573 5571 5570 5568 5568 5566 5565 5564 5563 5562 5560 5559 5559 5559 5558 5557 5555 5556 5555 5555 5556 5556 5558 5558 5558 5558 5558 5558
5569 5568 5568 5568 5568 5568 5567 5567 5566 5565 5564 5562 5561 5560 5558 5557 5555 5554 5553 5552 5550 5548 5548 5549 5549 5548 5548 5547 5547 5547 5548 5548 5549 5550 5549 5549 5550 5550
5560 5559 5559 5559 5559 5559 5558 5558 5557 5556 5555 5554 5552 5551 5550 5548 5547 5546 5545 5543 5541 5539 5538 5538 5538 5537 5537 5537 5536 5537 5537 5537 5539 5540 5540 5540 5540 5541
5551 5551 5550 5550 5550 5550 5550 5549 5548 5547 5546 5544 5543 5542 5541 5540 5538 5537 5535 5534 5532 5531 5530 5530 5528 5527 5525 5526 5527 5527 5527 5528 5528 5529 5530 5530 5531 5532
5543 5542 5542 5542 5541 5541 5541 5540 5539 5537 5536 5535 5533 5532 5532 5531 5530 5528 5526 5525 5523 5522 5521 5519 5518 5517 5517 5517 5516 5516 5517 5518 5518 5518 5519 5520 5521 5523
5535 5534 5534 5533 5533 5533 5532 5531 5530 5528 5527 5526 5524 5523 5522 5521 5520 5519 5517 5516 5515 5513 5511 5510 5510 5509 5508 5507 5505 5506 5506 5507 5508 5509 5509 5509 5510 5511
5527 5526 5525 5525 5524 5524 5523 5522 5521 5519 5518 5517 5515 5514 5512 5511 5510 5509 5507 5506 5505 5504 5503 5502 5501 5500 5498 5497 5496 5496 5496 5497 5497 5498 5499 5500 5500 5501
5518 5518 5517 5516 5515 5514 5513 5512 5512 5510 5509 5508 5506 5504 5503 5501 5500 5499 5498 5497 5496 5495 5494 5493 5492 5491 5490 5489 5488 5487 5488 5488 5488 5488 5488 5489 5490 5491